Weather History for Clayton Lake, ME

Change the Weather History Date:

Saturday, February 2, 2013

  Actual Average Record
Temperature  
Mean Temperature 0 °F -  
Max Temperature 8 °F 22 °F 46 °F (1998)
Min Temperature -7 °F -6 °F -12 °F (2011)
Degree Days  
Heating Degree Days 65    
Moisture  
Dew Point -8 °F    
Average Humidity 69    
Maximum Humidity 86    
Minimum Humidity 46    
Precipitation  
Precipitation 0.05 in - - ()
Sea Level Pressure  
Sea Level Pressure 30.12 in    
Wind  
Wind Speed 3 mph (SW)    
Max Wind Speed 9 mph    
Max Gust Speed 17 mph    
Averages and records for this station are not official NWS values.
T = Trace of Precipitation, MM = Missing Value Source: NWS Daily Summary

Daily Weather History Graph

Daily Weather History Graph

Search for Another Location

Airport:

Trip Planner

Search our weather history database for the weather conditions in past years. The results will help you decide how hot, cold, wet, or windy it might be!

Date:

Astronomy

Feb. 02, 2013 Rise Set
Actual Time 7:00 AM EST 4:43 PM EST
Civil Twilight 6:28 AM EST 5:16 PM EST
Nautical Twilight 5:52 AM EST 5:52 PM EST
Astronomical Twilight 5:16 AM EST 6:27 PM EST
Moon No Moon Rise 9:40 AM EST
Length of Visible Light 10h 47m
Length of Day
9h 43m
Waning Gibbous, 60% of the Moon is Illuminated
Feb 2
Waning Gibbous
Feb 3
Last Quarter
Feb 10
New
Feb 17
First Quarter
Feb 25
Full

Hourly Weather History & Observations

Time (EST) Temp. Windchill Dew Point Humidity Pressure Visibility Wind Dir Wind Speed Gust Speed Precip Events Conditions
12:25 AM -0.8 °F - -8.3 °F 70% 30.02 in - Variable 2.3 mph - N/A   Unknown
1:25 AM -1.5 °F -9.5 °F -8.5 °F 72% 30.04 in - Variable 3.5 mph - N/A   Unknown
2:25 AM -2.7 °F - -8.7 °F 76% 30.06 in - Calm Calm - 0.00 in   Unknown
3:25 AM -3.1 °F - -9.0 °F 76% 30.08 in - Calm Calm - N/A   Unknown
4:25 AM -4.4 °F - -10.3 °F 76% 30.11 in - Calm Calm - N/A   Unknown
5:25 AM -6.0 °F - -12.1 °F 75% 30.12 in - Variable 2.3 mph - N/A   Unknown
6:25 AM -7.8 °F - -12.8 °F 79% 30.14 in - Calm Calm - 0.00 in   Unknown
7:25 AM -7.1 °F -15.9 °F -13.2 °F 75% 30.16 in - Variable 3.5 mph - N/A   Unknown
8:27 AM -4.7 °F -17.2 °F -12.6 °F 69% 30.17 in - Variable 5.8 mph - 0.02 in   Unknown
9:25 AM -1.8 °F -15.2 °F -12.8 °F 60% 30.18 in - Variable 6.9 mph 13.8 mph 0.00 in   Unknown
10:25 AM 1.0 °F -8.7 °F -11.4 °F 56% 30.17 in - Variable 4.6 mph 17.3 mph N/A   Unknown
11:25 AM 3.4 °F -8.9 °F -10.7 °F 52% 30.15 in - Variable 6.9 mph 16.1 mph N/A   Unknown
12:28 PM 4.1 °F -8.0 °F -11.4 °F 49% 30.14 in - WSW 6.9 mph 13.8 mph N/A   Unknown
1:25 PM 6.1 °F -6.8 °F -10.7 °F 46% 30.12 in - SW 8.1 mph 16.1 mph N/A   Unknown
2:25 PM 7.0 °F -3.3 °F -8.3 °F 50% 30.12 in - Variable 5.8 mph 16.1 mph N/A   Unknown
3:25 PM 7.2 °F -6.4 °F -6.9 °F 53% 30.12 in - SSW 9.2 mph 17.3 mph N/A   Unknown
4:26 PM 6.6 °F -2.2 °F -5.8 °F 57% 30.12 in - Variable 4.6 mph - N/A   Unknown
5:25 PM 5.0 °F - -4.9 °F 64% 30.13 in - Calm Calm - N/A   Unknown
6:25 PM 1.6 °F - -4.4 °F 76% 30.13 in - Calm Calm - 0.00 in   Unknown
7:25 PM 0.9 °F - -3.3 °F 83% 30.13 in - Calm Calm - N/A   Unknown
8:25 PM 1.9 °F - -2.0 °F 83% 30.13 in - Calm Calm - 0.01 in   Unknown
9:25 PM 3.4 °F - -0.0 °F 86% 30.12 in - Calm Calm - 0.01 in   Unknown
10:25 PM 3.6 °F - 0.3 °F 86% 30.12 in - Calm Calm - 0.00 in   Unknown
11:27 PM 3.6 °F - 0.3 °F 86% 30.12 in - Calm Calm - 0.01 in   Unknown